STARLINK-31217, 59036

Orbit data source: Space-Track

STARLINK-31217, 59036 is a payload satellite owned by SpaceX/Seattle (US) in LEO that was launched on Sun, 25 Feb 2024 UTC via an FALCON 9 launch vehicle from the Air Force Eastern Test Range (AFETR). Payload-class satellites include a variety of spacecraft equipped with specific instruments for various scientific and technological missions. These include communications satellites like Starlink; space stations such as the ISS; scientific satellites like the Hubble; Earth observation satellites from companies like Planet Labs, Umbra, and HawkEye 360; GPS; miniature CubeSats for education and research; and military/defense satellites.

Loading next visibility...
Identifier
59036, 2024-038P
Orbit
LEO
Country
Flag of USUS
Related business
Manufacturer
SpaceX/Seattle
Mission
Operational Commercial Communications
Bus & Motor
STARLINK V2M, Unknown motor
Mass
730 kg wet, ~700 kg dry
Launch date (UTC)
2024-02-25 (2 years ago)
Launch vehicle
FALCON 9
Launch site
Air Force Eastern Test Range (AFETR)
Object type
Payload
Rocket body
Debris
Shape & HBR
Box + 2 Pan, 17.7 m
Radar Cross Section
33.884 m², Large (>1 m²)

Expand to show TLE details & history
Last TLE update: 16 hours ago

TLE from 16 hours ago
0 STARLINK-31217
1 59036U 24038P   25346.61609706 -.00001344  00000-0 -39335-4 0  9996
2 59036  43.0036  60.9684 0001294 274.9639  85.1065 15.27563530102623
Epoch: 2025-12-12T14:47Z
TLE epoch observation values (Epoch: 2025-12-12T14:47:10.785Z)
Latitude
-0.00004°
Longitude
117.61826°
Altitude
482.799 km
Speed
7.626 km/s
True Right ascension
04h 03m 52s
True Declination
0° 00' 00"
Sunlit
Object was in full shadow at epoch
Visualization orbit readout
Latitude
Unknown
Longitude
Unknown
Altitude
Unknown
Speed
Unknown
Apparent Right ascension
Unknown
Apparent Declination
Unknown
Sunlit
N/A
Visualization observer readout
Local Sidereal Time
05:23:52
Azimuth
Unknown
Elevation
Unknown
Doppler factor
Unknown
Orbital elements
Apogee altitude
485.931 km
Perigee altitude
484.155 km
Semi-major axis
6,863.18 km
Eccentricity
0.00013
Inclination
43.0036°
RAAN
60.9684°
Arg. of periapsis
274.9639°
True anomaly
85.12127°
Mean anomaly
85.1065°
Eccentric anomaly
85.11389°
Mean motion
3.81729 °/min
Orbital period
94.31 mins
BSTAR
-0.000039335
Loading maneuver chart data...
Computing Atmospheric mass density...
Loading historical data...
Loading historical data...
Loading historical data...
Loading historical data...
Loading historical data...
Loading historical data...
Loading historical data...

Documentation

Showing up to 5 results
|